THOR AGENA B R/B, 1807

Orbit data source: Space-Track

THOR AGENA B R/B, 1807 is space debris in LEO originally from a launch on Mon, 29 Nov 1965 UTC launched from the Air Force Western Test Range (AFWTR). Debris objects in space refer to the collection of defunct objects orbiting the Earth. Examples of debris include non-operational satellites, rocket bodies, and fragments generated from explosions, collisions, or faulty payload assembly.

Loading next visibility...
THOR AGENA B R/B details
Identifier
1807, 1965-098C
Orbit
LEO
Last TLE update16 hours ago
Origin
Flag of USUSAF SSD (US)
ManufacturerLMSC
MissionSpacecraft
Bus & MotorAGENA B, Unknown motor
Mass600 kg wet, 600 kg dry
Launch date (UTC)
1965-11-29 (59 years ago)
Launch vehicleUnknown
Launch site
Air Force Western Test Range (AFWTR)
Object type
Payload
Rocket body
Debris
Shape & HBRCyl + 1 Nozzle, 6.3 m
Radar Cross Section8.306 m², Large (>1 m²)

Expand to show TLE details & history

TLE from 16 hours ago
0 THOR AGENA B R/B
1 01807U 65098C   24355.89286034  .00000918  00000-0  29737-3 0  9992
2 01807  79.8340 141.5680 1335493  52.3993 319.0954 12.27078443606633
Epoch: 2024-12-20T21:25Z
Definitive object data (Epoch: 2024-12-20T21:25:43.133Z)
Latitude0.00003°
Longitude90.18644°
Altitude833.74 km
Speed7.771 km/s
True Right ascension09h 26m 16s
True Declination0° 00' 00"
Sunlit
Object was in full shadow at TLE epoch
Visualization TLE readout
Latitude37.96341°
Longitude97.62602°
Altitude525.465 km
Speed8.088 km/s
Apparent Right ascension05h 44m 29s
Apparent Declination2° 47' 34"
Sunlit
Object is in full shadow
Visualization observer readout
Local Sidereal Time12:16:42
Azimuth277.329° WNW
Elevation-4.365°
Doppler factor1
Orbital elements
Apogee altitude2,619.318 km
Perigee altitude499.245 km
Semi-major axis7,937.419 km
Eccentricity0.1335493
Inclination79.834°
RAAN141.568°
Arg. of periapsis52.3993°
True anomaly307.71383°
Mean anomaly319.0954°
Eccentric anomaly313.54953°
Mean motion3.06919 °/min
BSTAR0.00029737
Orbital period117.29 mins
Loading maneuver chart data...
Loading historical data...
Loading historical data...
Loading historical data...
Loading historical data...
Loading historical data...
Loading historical data...
Loading historical data...

THOR AGENA B R/B Visibility forecast

Observer location: undefined°, undefined

Span
Click to sort rows by Start time (UTC) header in descending order
Start Az.
Max El. time (UTC)
Max El. Az.
Max El.
End time (UTC)
End Az.
4 mins2024-12-21 19:30:46.879Z55.129° ENE2024-12-21 19:32:46.879Z71.128° E11.639°2024-12-21 19:34:46.879Z85.06° E
16 mins2024-12-21 21:25:46.879Z354.965° N2024-12-21 21:30:46.879Z54.198° ENE43.903°2024-12-21 21:41:46.879Z165.141° S
9 mins2024-12-21 23:26:46.879Z295.75° NW2024-12-21 23:29:46.879Z268.733° W18.994°2024-12-21 23:35:46.879Z229.844° WSW
6 mins2024-12-22 10:43:46.879Z186.445° SSW2024-12-22 10:46:46.879Z49.551° ENE44.235°2024-12-22 10:49:46.879Z13.398° NNE
|